Wind_Speed
27 28 28 29 29 30 30 30 31 31 31 31 32 32 33 33 34 34 34 34 35 35 35 35 35 36 36 37 38 38 39 40 40 40 40 41 41 42 42 43 43 44 44
29 29 30 30 30 31 31 31 32 32 33 33 34 34 34 34 34 34 35 35 35 35 36 36 36 37 37 38 38 39 39 40 41 41 42 42 43 43 44 44 44 45 45
30 30 31 31 32 32 32 32 33 33 34 35 35 35 35 35 35 35 36 36 36 36 36 37 37 38 38 39 39 40 40 41 41 42 43 43 44 44 44 45 45 46 46
31 31 32 32 33 33 33 33 34 34 34 35 35 35 35 35 35 36 36 36 37 37 38 38 39 39 40 40 41 41 42 42 42 43 43 43 44 44 45 45 46 46 47
32 32 32 33 34 34 34 35 35 35 35 35 35 35 36 36 36 37 37 37 38 38 39 39 40 41 41 42 42 43 43 43 43 43 43 44 44 45 45 46 46 47 47
33 33 33 34 34 35 35 36 36 36 36 36 36 36 36 37 37 38 38 39 39 39 40 40 41 42 42 42 42 42 42 42 43 43 44 44 45 45 46 47 47 48 48
33 34 34 35 35 36 36 36 36 37 37 37 37 37 37 38 39 40 40 40 40 41 41 42 43 43 43 42 42 42 43 43 43 44 44 45 45 46 47 47 48 48 49
34 35 36 36 36 37 37 37 37 37 38 37 37 38 38 39 40 41 41 41 42 42 43 43 43 43 43 43 43 43 44 44 45 45 46 46 47 47 48 48 49 49 50
35 36 36 37 37 38 38 38 38 38 38 39 39 39 39 40 40 40 41 42 43 44 44 44 44 44 44 44 45 45 46 46 47 47 48 48 49 49 49 50 50 51 51
36 36 37 37 38 38 39 39 39 39 39 40 40 41 41 41 41 41 42 43 44 45 45 45 45 45 45 46 46 47 47 48 48 49 50 50 51 51 52 52 52 53 53
36 37 37 37 38 39 39 40 40 40 40 41 41 42 42 43 43 43 43 43 44 45 45 45 46 47 47 48 48 49 49 50 50 51 52 52 52 53 53 54 54 54 54
36 37 38 38 38 39 40 40 40 41 41 42 42 43 44 44 45 45 44 44 44 45 46 47 48 48 49 49 50 51 51 52 53 53 54 54 54 55 55 55 56 56 56
36 37 38 38 39 40 40 41 41 41 41 42 43 44 45 46 46 47 47 46 45 45 46 48 49 50 51 51 52 53 54 54 55 55 56 56 57 57 58 59 59 60 61
37 37 38 39 39 40 41 41 41 41 42 44 45 46 47 47 48 49 49 48 47 47 47 49 50 51 52 53 54 55 56 57 57 58 59 60 61 61 62 63 64 65 66
37 38 39 39 40 40 41 41 41 43 44 45 46 47 48 49 49 50 50 50 51 50 49 50 51 53 54 55 56 58 59 60 61 62 63 64 65 66 68 69 69 70 71
38 38 39 40 40 40 41 42 43 44 45 46 47 48 48 49 50 50 51 52 53 53 52 52 54 55 57 59 60 61 62 64 65 66 67 69 70 71 72 73 73 74 75
38 38 39 40 40 41 41 42 43 45 46 47 48 48 49 49 50 51 52 53 54 56 55 55 57 59 61 62 64 65 66 67 68 69 71 72 73 74 75 76 77 78 78
37 38 38 39 40 41 42 43 44 45 46 46 47 49 50 51 52 53 54 55 56 58 58 58 59 61 63 65 66 67 68 69 70 71 72 73 74 74 75 76 76 77 78
37 37 38 39 40 41 42 43 45 45 46 47 49 50 51 53 53 55 56 57 58 60 61 62 63 64 66 67 68 68 69 70 71 72 72 72 73 74 74 75 76 77 77
37 38 38 39 40 41 42 44 45 46 47 48 50 52 53 54 55 56 57 59 61 62 64 65 66 66 67 68 69 70 70 71 71 72 72 73 74 75 76 76 76 75 75
37 38 38 39 41 42 43 44 45 47 48 50 52 53 55 55 56 58 59 61 63 65 66 67 67 67 68 69 69 70 70 70 70 72 72 73 73 73 72 72 71 71 70
37 38 39 40 41 42 43 45 47 49 50 52 53 54 55 57 58 60 62 64 66 67 67 68 69 69 68 69 69 70 70 70 70 70 71 69 69 67 67 66 66 65 63
37 38 39 40 42 43 45 46 48 50 51 53 54 55 57 59 61 63 64 66 66 67 68 69 69 69 69 69 69 70 70 70 69 68 66 63 63 61 60 59 58 57 55
37 38 40 41 42 44 46 48 50 51 53 54 55 57 59 61 63 65 65 65 66 67 68 69 69 69 69 69 70 70 69 67 64 62 61 58 56 54 53 52 51 50 48
37 39 40 42 43 45 47 49 51 52 53 55 57 59 60 62 64 66 66 66 66 66 67 68 68 68 68 68 68 67 64 62 58 56 56 54 51 49 48 47 45 44 41
38 40 41 43 45 47 48 50 51 52 54 56 58 60 62 64 65 66 66 66 66 67 67 67 66 66 66 64 63 62 59 57 55 52 51 49 46 44 41 40 39 38 35
Wind_Direction
292 292 292 292 293 293 293 294 293 292 292 291 291 291 291 290 290 289 288 288 287 287 286 285 284 283 282 281 281 280 279 278 277 276 275 274 273 272 272 271 270 269 269
291 291 291 292 292 293 293 293 293 292 291 291 291 292 291 290 290 289 288 288 287 286 286 285 284 283 283 282 281 280 280 279 278 277 276 275 274 273 272 271 270 270 269
290 290 291 291 292 293 292 292 292 292 291 291 291 292 291 291 290 289 288 288 287 286 286 285 284 284 283 283 282 281 280 279 278 277 277 276 275 274 273 272 271 271 270
289 289 290 291 292 292 292 292 292 292 292 292 292 292 291 291 291 290 289 288 287 287 286 285 285 284 284 283 283 282 281 280 279 278 277 276 275 275 274 273 272 271 271
288 289 289 290 291 291 291 291 292 292 292 292 292 292 292 292 292 291 290 289 288 287 286 286 285 285 285 284 283 282 281 280 280 279 278 277 276 275 275 274 273 272 271
288 288 289 290 290 290 290 291 291 292 292 293 292 292 293 293 293 292 291 290 289 288 288 287 287 287 286 286 285 284 283 282 281 280 279 278 277 276 275 274 274 273 272
286 287 288 289 289 289 290 290 291 291 292 292 292 292 293 293 293 293 292 291 290 290 289 289 289 288 287 286 285 284 283 283 282 281 281 280 279 278 277 275 274 273 272
286 286 287 288 288 288 289 289 291 291 292 292 292 292 293 294 294 294 293 292 292 291 291 290 289 288 287 286 285 285 284 284 283 283 282 281 280 279 277 276 275 274 273
286 286 287 287 287 287 288 289 290 291 291 292 292 292 292 293 293 293 293 293 293 292 292 291 290 289 288 287 287 286 286 285 284 284 283 282 281 280 279 277 276 275 274
285 285 286 286 287 287 288 288 289 290 291 292 292 292 293 294 293 293 293 293 293 293 292 291 290 289 289 288 288 287 286 286 285 284 284 283 282 280 279 278 277 276 274
284 284 285 286 286 287 288 289 289 290 291 292 293 293 294 294 294 293 293 294 294 293 292 291 290 290 289 289 288 288 287 287 286 285 284 283 282 281 280 279 278 276 275
284 284 284 285 286 287 288 289 290 291 292 292 293 294 295 295 295 295 294 294 294 293 293 292 291 291 290 290 290 289 288 288 287 286 285 284 282 281 280 279 278 277 276
284 284 284 286 287 288 289 290 291 291 292 293 294 295 296 296 296 296 295 294 294 294 293 293 292 292 291 291 291 290 289 289 288 287 286 285 283 282 281 280 279 278 277
283 284 285 286 287 288 290 291 291 292 293 294 295 296 297 297 297 297 296 295 294 294 294 294 293 293 292 292 291 291 290 289 288 288 287 286 284 283 282 281 280 279 278
283 284 285 286 287 289 290 291 292 293 294 295 296 297 298 298 297 297 297 296 296 295 295 295 294 294 294 293 292 291 291 290 289 288 287 286 285 284 283 282 281 280 278
283 284 285 286 287 289 290 291 292 294 295 296 297 297 298 298 298 297 297 297 297 297 297 296 296 295 295 294 293 293 292 291 290 289 288 287 286 285 284 283 282 281 279
283 284 285 287 288 289 291 292 293 294 295 297 297 298 298 298 298 298 298 298 298 298 298 297 297 297 296 296 295 294 294 293 292 291 290 289 288 287 285 284 283 282 281
284 285 286 287 288 290 291 293 294 296 296 297 298 298 299 299 299 299 299 299 299 299 299 299 298 298 297 296 296 295 294 294 293 293 292 291 289 288 287 286 284 283 282
284 285 286 288 289 290 292 293 295 296 297 298 298 299 299 299 299 299 299 299 300 300 300 299 299 299 298 297 297 296 296 295 295 294 293 292 291 290 289 287 286 285 284
285 286 287 289 290 291 293 294 295 297 298 298 299 300 300 300 300 300 300 300 300 301 300 300 300 299 299 298 297 297 296 296 296 295 294 293 292 290 289 288 287 286 284
286 287 288 290 291 293 294 295 297 298 299 299 300 300 300 300 301 301 301 302 302 301 301 301 301 300 300 299 298 298 298 297 296 296 295 294 293 292 291 290 288 287 285
288 288 289 291 293 294 295 296 297 298 299 300 301 301 301 301 302 302 302 303 303 302 302 301 301 301 301 300 299 299 299 298 297 296 295 295 294 293 292 291 290 289 287
289 290 291 293 294 295 296 297 298 299 300 301 301 301 302 302 302 303 303 304 304 303 303 303 303 303 302 301 301 301 300 300 299 298 297 296 296 295 294 292 291 290 288
291 292 293 294 295 296 297 299 300 300 301 302 302 302 302 303 303 304 304 304 304 304 304 304 304 304 303 303 302 302 302 301 301 300 299 298 297 297 296 294 293 291 289
293 294 294 295 297 298 299 300 301 301 302 303 303 303 304 305 305 305 305 305 305 305 305 305 305 305 304 304 303 303 303 303 302 301 300 300 299 298 297 295 293 291 290
294 295 296 297 298 299 300 301 301 302 303 304 304 305 306 306 306 306 306 306 306 306 305 305 305 305 305 305 305 304 304 304 304 302 301 301 300 299 298 295 293 293 292
Height
5838 5836 5834 5832 5830 5828 5825 5823 5821 5819 5816 5814 5812 5810 5807 5805 5802 5799 5797 5794 5792 5789 5787 5785 5783 5781 5778 5776 5774 5773 5771 5769 5767 5766 5764 5763 5762 5761 5760 5759 5758 5758 5758
5832 5830 5828 5826 5824 5822 5819 5817 5815 5812 5810 5807 5805 5803 5800 5798 5795 5792 5790 5787 5784 5782 5779 5777 5775 5772 5770 5768 5766 5764 5762 5760 5758 5756 5755 5753 5752 5751 5750 5749 5748 5747 5747
5826 5824 5822 5820 5817 5815 5813 5811 5808 5806 5803 5801 5798 5795 5793 5790 5787 5785 5782 5779 5777 5774 5771 5769 5766 5764 5761 5759 5757 5754 5752 5750 5748 5746 5745 5743 5742 5740 5739 5738 5737 5736 5736
5819 5817 5815 5813 5811 5808 5806 5804 5801 5799 5796 5793 5791 5788 5785 5782 5779 5777 5774 5771 5768 5766 5763 5760 5757 5755 5752 5750 5747 5745 5742 5740 5738 5736 5734 5733 5731 5729 5728 5727 5726 5725 5724
5812 5810 5808 5806 5804 5801 5799 5797 5794 5791 5789 5786 5783 5780 5777 5774 5771 5768 5766 5763 5760 5757 5754 5751 5748 5745 5743 5740 5737 5735 5732 5730 5728 5726 5724 5722 5720 5719 5717 5716 5715 5714 5713
5805 5803 5801 5799 5796 5794 5792 5789 5787 5784 5781 5779 5776 5773 5770 5766 5763 5760 5757 5754 5751 5748 5745 5742 5739 5736 5733 5730 5727 5724 5722 5719 5717 5715 5713 5711 5709 5707 5706 5704 5703 5702 5701
5797 5795 5793 5791 5789 5786 5784 5781 5779 5776 5774 5771 5768 5765 5762 5758 5755 5751 5748 5744 5741 5738 5735 5732 5729 5726 5723 5720 5717 5714 5711 5709 5707 5704 5702 5700 5698 5696 5694 5692 5691 5689 5688
5790 5788 5786 5783 5781 5779 5776 5773 5771 5768 5766 5763 5760 5757 5754 5751 5746 5742 5739 5735 5732 5728 5725 5721 5718 5715 5712 5709 5706 5703 5700 5698 5695 5693 5691 5688 5686 5684 5682 5680 5678 5677 5676
5782 5780 5777 5775 5773 5770 5768 5765 5763 5760 5757 5754 5751 5748 5745 5742 5739 5735 5730 5726 5722 5718 5715 5711 5707 5704 5701 5698 5695 5692 5689 5686 5684 5681 5678 5676 5673 5671 5669 5667 5665 5664 5662
5774 5771 5769 5767 5764 5762 5759 5757 5754 5751 5748 5745 5742 5739 5736 5732 5729 5726 5722 5717 5713 5708 5704 5700 5697 5693 5690 5687 5683 5680 5677 5674 5671 5668 5665 5663 5660 5658 5655 5653 5651 5650 5648
5766 5763 5761 5758 5756 5753 5751 5748 5745 5742 5739 5736 5733 5729 5726 5722 5718 5715 5712 5708 5703 5698 5694 5689 5685 5682 5678 5675 5671 5668 5664 5661 5658 5655 5652 5649 5646 5643 5641 5639 5637 5635 5633
5757 5755 5752 5750 5747 5745 5742 5739 5736 5733 5730 5727 5723 5720 5716 5712 5708 5704 5701 5698 5694 5688 5683 5678 5674 5670 5666 5662 5659 5655 5651 5647 5644 5641 5637 5634 5631 5628 5626 5623 5621 5619 5617
5748 5746 5743 5741 5738 5736 5733 5730 5727 5724 5721 5717 5713 5710 5705 5701 5697 5693 5689 5685 5682 5678 5673 5667 5662 5658 5654 5649 5645 5641 5637 5633 5629 5626 5622 5619 5616 5612 5610 5607 5604 5602 5600
5739 5737 5735 5732 5730 5727 5724 5721 5718 5715 5711 5707 5703 5699 5695 5690 5686 5681 5677 5673 5670 5667 5662 5656 5650 5645 5640 5636 5631 5627 5623 5618 5614 5610 5606 5602 5599 5595 5592 5589 5586 5583 5581
5730 5728 5726 5723 5721 5718 5715 5712 5708 5705 5701 5697 5693 5688 5684 5679 5675 5670 5665 5660 5656 5653 5650 5644 5638 5632 5627 5622 5617 5612 5607 5602 5598 5593 5588 5584 5580 5576 5572 5569 5566 5563 5560
5721 5719 5717 5714 5711 5708 5705 5702 5699 5695 5691 5687 5682 5678 5673 5668 5663 5658 5653 5647 5642 5638 5635 5631 5624 5618 5612 5606 5601 5595 5590 5585 5579 5574 5569 5564 5559 5555 5550 5547 5543 5540 5536
5712 5710 5707 5705 5702 5699 5696 5692 5689 5685 5681 5676 5672 5667 5662 5656 5651 5646 5640 5635 5629 5624 5620 5617 5610 5603 5596 5590 5583 5577 5571 5565 5559 5553 5547 5542 5536 5531 5527 5522 5518 5515 5511
5703 5700 5698 5695 5692 5689 5686 5682 5678 5674 5670 5665 5660 5655 5650 5645 5639 5634 5628 5622 5616 5610 5604 5601 5595 5587 5580 5572 5566 5559 5552 5545 5539 5532 5526 5519 5513 5508 5502 5497 5493 5488 5484
5694 5691 5688 5685 5682 5679 5675 5672 5668 5663 5659 5654 5649 5644 5638 5632 5627 5621 5615 5608 5602 5595 5589 5583 5578 5571 5563 5554 5547 5540 5533 5526 5518 5511 5504 5497 5491 5484 5478 5472 5467 5463 5458
5684 5681 5678 5675 5672 5669 5665 5661 5657 5652 5647 5642 5637 5631 5625 5620 5614 5607 5601 5594 5587 5580 5573 5565 5559 5552 5545 5535 5527 5521 5515 5507 5499 5490 5482 5475 5468 5461 5454 5448 5443 5438 5433
5675 5672 5669 5665 5662 5658 5654 5650 5646 5641 5636 5631 5625 5618 5612 5606 5599 5592 5586 5579 5571 5563 5555 5548 5541 5534 5526 5517 5508 5500 5494 5487 5480 5470 5462 5454 5445 5438 5430 5423 5418 5413 5408
5665 5662 5658 5655 5652 5648 5644 5639 5634 5629 5624 5618 5612 5605 5599 5592 5585 5578 5570 5562 5554 5545 5537 5530 5522 5514 5506 5497 5489 5481 5473 5467 5461 5452 5441 5435 5424 5417 5409 5403 5396 5391 5387
5655 5652 5648 5645 5641 5637 5632 5627 5622 5617 5611 5605 5598 5592 5585 5578 5570 5563 5555 5546 5537 5527 5518 5510 5503 5494 5486 5478 5470 5462 5453 5445 5438 5429 5420 5415 5406 5399 5391 5384 5377 5372 5368
5645 5642 5638 5634 5630 5626 5621 5616 5610 5604 5598 5591 5585 5578 5571 5563 5554 5547 5539 5530 5521 5511 5501 5492 5483 5475 5466 5457 5449 5441 5433 5426 5419 5410 5401 5396 5390 5383 5375 5368 5361 5356 5353
5635 5632 5628 5624 5619 5614 5609 5603 5597 5591 5585 5578 5571 5563 5555 5548 5539 5530 5522 5514 5505 5495 5484 5474 5465 5456 5447 5438 5429 5421 5414 5407 5401 5394 5385 5379 5374 5368 5362 5355 5348 5343 5340
5625 5621 5617 5612 5608 5603 5597 5591 5584 5579 5573 5566 5558 5549 5540 5531 5522 5512 5504 5495 5487 5478 5468 5459 5449 5440 5430 5421 5412 5404 5396 5390 5384 5379 5371 5364 5359 5353 5350 5344 5337 5332 5329